View from above orbital plane
|
View from above satellite
|
Ground track
|
The orbit data is extracted from the following two-line orbital elements,
1 42827U 17042C 19341.40235952 .00000132 00000-0 18595-4 0 9993
2 42827 97.5448 227.0709 0014402 200.5133 159.5509 14.91194338130498
Epoch (UTC): | 07 December 2019 09:39:23 |
Eccentricity: | 0.0014402 |
inclination: | 97.5448° |
perigee height: | 584 km |
apogee height: | 604 km |
right ascension of ascending node: | 227.0709° |
argument of perigee: | 200.5133° |
revolutions per day: | 14.91194338 |
mean anomaly at epoch: | 159.5509° |
orbit number at epoch: | 13049 |
The dashed part of the orbit path shows where the satellite is in the earth's shadow,
|
|